Bishop, CA

3:39 PM PDT on April 23, 2017 (GMT -0700)
Bishop

Weather History for KBIH - May, 2013

Change the Weather History Date:

Thursday, May 9, 2013

  Actual Average Record
Temperature  
Mean Temperature 62 °F 61 °F  
Max Temperature 77 °F 80 °F 93 °F (1960)
Min Temperature 46 °F 43 °F 30 °F (2003)
Degree Days  
Heating Degree Days 3 5  
Month to date heating degree days 52 51  
Since 1 July heating degree days 3833 4093  
Cooling Degree Days 0 1  
Month to date cooling degree days 0 7  
Year to date cooling degree days 20 11  
Growing Degree Days 12 (Base 50)    
Moisture  
Dew Point 39 °F    
Average Humidity 48    
Maximum Humidity 77    
Minimum Humidity 18    
Precipitation  
Precipitation T in 0.01 in 0.21 in (1949)
Month to date precipitation 0.47 0.05  
Year to date precipitation 0.47 2.74  
Snow  
Snow 0.00 in 0.00 in - ()
Month to date snowfall 0.0 0.0  
Since 1 July snowfall 2.8 8.0  
Snow Depth 0.00 in    
Sea Level Pressure  
Sea Level Pressure 30.03 in    
Wind  
Wind Speed 7 mph (NW)    
Max Wind Speed 33 mph    
Max Gust Speed 44 mph    
Visibility 10 miles    
Events      
T = Trace of Precipitation, MM = Missing Value Source: NWS Daily Summary

Daily Weather History Graph

Daily Weather History Graph

Search for Another Location

Airport or City:

Trip Planner

Search our weather history database for the weather conditions in past years. The results will help you decide how hot, cold, wet, or windy it might be!

Date:

Astronomy

May. 09, 2013 Rise Set
Actual Time 5:49 AM PDT 7:50 PM PDT
Civil Twilight 5:20 AM PDT 8:19 PM PDT
Nautical Twilight 4:45 AM PDT 8:54 PM PDT
Astronomical Twilight 4:08 AM PDT 9:32 PM PDT
Moon 5:36 AM PDT (5/9) 7:50 PM PDT (5/9)
Length of Visible Light 14h 58m
Length of Day
14h 00m
Waning Crescent, 0% of the Moon is Illuminated
May 9
Waning Crescent
May 9
New
May 17
First Quarter
May 24
Full
May 31
Last Quarter

Hourly Weather History & Observations

Time (PDT) Temp. Dew Point Humidity Pressure Visibility Wind Dir Wind Speed Gust Speed Precip Events Conditions
12:56 AM 51.1 °F 41.0 °F 68% 30.02 in 10.0 mi WNW 4.6 mph - N/A   Overcast
1:56 AM 48.9 °F 41.0 °F 74% 30.02 in 10.0 mi NW 3.5 mph - N/A   Mostly Cloudy
2:56 AM 50.0 °F 41.0 °F 71% 30.01 in 10.0 mi North 3.5 mph - N/A   Overcast
3:56 AM 48.9 °F 41.0 °F 74% 30.01 in 10.0 mi NW 4.6 mph - N/A   Overcast
4:56 AM 51.1 °F 39.9 °F 66% 30.00 in 10.0 mi NW 4.6 mph - N/A   Overcast
5:56 AM 46.9 °F 39.0 °F 74% 30.02 in 10.0 mi NW 5.8 mph - N/A   Scattered Clouds
6:56 AM 50.0 °F 39.9 °F 68% 30.04 in 10.0 mi WNW 5.8 mph - N/A   Mostly Cloudy
7:56 AM 57.0 °F 39.9 °F 53% 30.04 in 10.0 mi WNW 4.6 mph - N/A   Mostly Cloudy
8:56 AM 62.1 °F 39.9 °F 44% 30.04 in 10.0 mi North 6.9 mph - N/A   Mostly Cloudy
9:56 AM 63.0 °F 37.0 °F 38% 30.04 in 10.0 mi Calm Calm - N/A   Overcast
10:56 AM 66.0 °F 37.9 °F 36% 30.02 in 10.0 mi Variable 3.5 mph - N/A   Overcast
11:56 AM 72.0 °F 37.9 °F 29% 30.00 in 10.0 mi East 5.8 mph - N/A   Clear
12:56 PM 72.0 °F 35.1 °F 26% 29.98 in 10.0 mi East 3.5 mph - N/A   Scattered Clouds
1:56 PM 77.0 °F 30.0 °F 18% 29.95 in 10.0 mi NW 9.2 mph - N/A   Scattered Clouds
2:56 PM 73.9 °F 34.0 °F 23% 29.98 in 10.0 mi NW 11.5 mph 20.7 mph 0.00 in   Partly Cloudy
3:56 PM 72.0 °F 34.0 °F 25% 29.97 in 10.0 mi WNW 10.4 mph 16.1 mph N/A   Mostly Cloudy
4:56 PM 71.1 °F 35.1 °F 27% 29.99 in 10.0 mi NW 8.1 mph - N/A   Scattered Clouds
5:56 PM 68.0 °F 37.9 °F 33% 30.01 in 10.0 mi NNW 10.4 mph - N/A   Clear
6:56 PM 68.0 °F 37.0 °F 32% 30.01 in 10.0 mi Calm Calm - N/A   Clear
7:56 PM 63.0 °F 43.0 °F 48% 30.06 in 10.0 mi South 16.1 mph 23.0 mph N/A   Mostly Cloudy
8:56 PM 62.1 °F 39.9 °F 44% 30.08 in 10.0 mi South 17.3 mph 24.2 mph N/A   Partly Cloudy
9:56 PM 59.0 °F 42.1 °F 53% 30.09 in 10.0 mi SE 11.5 mph - N/A   Clear
10:56 PM 57.0 °F 42.1 °F 57% 30.10 in 10.0 mi South 4.6 mph - N/A   Partly Cloudy
11:56 PM 52.0 °F 41.0 °F 66% 30.12 in 10.0 mi ENE 6.9 mph - N/A   Clear